Weather Roundup
Issued by NWS

Home | Current Version | Previous Version | Text Only | Print | Product List | Glossary On
Versions: 1 2 3 4 5 6 7 8 9 10 11 12 13 14 15 16 17 18 19 20 21 22 23 24 25 26 27 28 29 30 31 32 33 34 35 36 37 38 39 40 41 42 43 44 45 46 47 48 49 50
423
NZUS93 KARX 260259
HRRWXR

CURRENT HOURLY OBSERVATIONS ACROSS
MUCH OF THE UPPER MISSISSIPPI VALLEY
NATIONAL WEATHER SERVICE LA CROSSE WI
1000 PM CDT WED APR 25 2018


...SOUTHEAST MINNESOTA...


CITY           SKY/WX    TMP DP  RH WIND       PRES   REMARKS
ROCHESTER      FAIR      51  29  42 NW3       30.01F
ROCHESTER/MAYO FAIR      53  28  38 CALM      30.01S
WINONA         FAIR      48  34  57 CALM      29.98F
AUSTIN         FAIR      46  34  61 W3        30.01S
ALBERT LEA     FAIR      46  34  61 CALM      30.02S
DODGE CENTER   FAIR      45  34  65 CALM      30.01F
PRESTON        FAIR      49  26  39 NW3       30.01F
OWATONNA       FAIR      45  36  70 CALM      30.01S
FARIBAULT      NOT AVBL
$$

...ELSEWHERE IN MINNESOTA...


CITY           SKY/WX    TMP DP  RH WIND       PRES   REMARKS
MINNEAPOLIS    CLOUDY    53  32  44 W6        30.00S
INTNL FALLS    FAIR      48  27  44 S6        29.83F
DULUTH         FAIR      49  20  31 SW8       29.93S
RED WING       FAIR      43  25  49 CALM      29.99S
REDWOOD FALLS  CLOUDY    47  37  68 S7        29.97F
MANKATO        FAIR      49  33  54 S3        30.01S
WORTHINGTON    PTCLDY    51  32  48 S5        30.00F
FAIRMONT       CLOUDY    47  38  71 CALM      30.02S
$$

...SOUTHWEST WISCONSIN...


CITY           SKY/WX    TMP DP  RH WIND       PRES   REMARKS
LA CROSSE      FAIR      48  35  60 CALM      29.99F
PRAIRIE DU CHI FAIR      48  29  48 E3        30.00S
BOSCOBEL       FAIR      45  32  60 CALM      30.01S
LONE ROCK      NOT AVBL
PLATTEVILLE    FAIR      53  30  41 NE3       30.00S
FORT MC COY    FAIR      40  30  67 CALM      30.02S
MAUSTON-NEW LI FAIR      42  33  69 CALM      30.00S
VIROQUA        FAIR      51  28  42 CALM      30.00S
WIS DELLS      FAIR      42  27  55 CALM      30.00S
$$

...ELSEWHERE IN WISCONSIN...


CITY           SKY/WX    TMP DP  RH WIND       PRES   REMARKS
MILWAUKEE      FAIR      40  29  64 CALM      30.03F
MADISON        FAIR      46  29  51 CALM      30.00F
GREEN BAY      FAIR      41  34  76 SE7       30.01S
EAU CLAIRE     NOT AVBL
BLACK RVR FLS  FAIR      33  26  75 CALM      30.01R
MEDFORD        FAIR      41  28  60 S3        29.98F
WAUSAU         FAIR      43  26  51 CALM      29.97F
WIS RAPIDS     FAIR      38  27  64 CALM      30.01S
MARSHFIELD     FAIR      40  27  59 SW3       29.98F
RICE LAKE      FAIR      40  30  65 CALM      30.00S
$$

...NORTHEAST IOWA...


CITY           SKY/WX    TMP DP  RH WIND       PRES   REMARKS
WATERLOO       FAIR      44  32  62 CALM      30.01S
DUBUQUE        FAIR      50  28  42 CALM      30.00S
DECORAH        FAIR      52  28  40 CALM      30.00S
MASON CITY     CLEAR     44  36  73 W5        30.03S
CHARLES CITY   FAIR      48  34  57 NW5       30.02S
OELWEIN        FAIR      46  34  61 NW5       30.02R
$$

...ELSEWHERE IN IOWA...


CITY           SKY/WX    TMP DP  RH WIND       PRES   REMARKS
DES MOINES     CLEAR     57  28  33 NE5       30.01S
IOWA CITY      FAIR      49  31  49 CALM      30.01S
FORT DODGE     CLEAR     45  35  68 CALM      30.03R
MARSHALLTOWN   CLEAR     46  32  58 N7        30.01S
CEDAR RAPIDS   FAIR      50  28  42 N5        29.99S
$$

...NORTHERN ILLINOIS...


CITY           SKY/WX    TMP DP  RH WIND       PRES   REMARKS
CHICAGO-OHARE  FAIR      41  28  60 NE3       30.03F
CHICAGO-MIDWAY FAIR      42  30  62 NE6       30.03F
MOLINE         FAIR      49  33  54 CALM      29.99R
ROCKFORD       FAIR      44  31  60 E9        30.03S
PEORIA         FAIR      56  29  35 N7        29.99R
$$

NOTE: "FAIR" INDICATES FEW OR NO CLOUDS BELOW 12,000 FEET WITH NO
SIGNIFICANT WEATHER AND/OR OBSTRUCTIONS TO VISIBILITY. WIND
SPEEDS ARE IN MILES-PER-HOUR.




USA.gov is the U.S. government's official web portal to all federal, state and local government web resources and services.